Regional Weather Roundup
Issued by NWS Goodland, KS

Home | Current Version | Previous Version | Graphics & Text | Print | Product List | Glossary On
Versions: 1 2 3 4 5 6 7 8 9 10 11 12 13 14 15 16 17 18 19 20 21 22 23 24 25 26 27 28 29 30 31 32 33 34 35 36 37 38 39 40 41 42 43 44 45 46 47 48 49 50
000
ASUS43 KGLD 292259
RWRGLD

GOODLAND FORECAST AREA HOURLY WEATHER ROUNDUP
NATIONAL WEATHER SERVICE GOODLAND KS
500 PM MDT SUN MAR 29 2015

...OFFICIAL OBSERVATIONS...

CITY           SKY/WX    TMP DP  RH WIND       PRES   REMARKS
GOODLAND KS    SUNNY     64  18  17 VRB7      30.17F
HILL CITY KS   SUNNY     67  19  16 NE17G24   30.15R
IMPERIAL NEB     N/A     64  18  17 NW8       30.15F
MCCOOK NEB     SUNNY     66  16  14 N12       30.13F
AKRON CO       SUNNY     61  21  21 CALM      30.17F
BURLINGTON CO  SUNNY     64  18  17 N12G17    30.19F
LIMON CO       SUNNY     59  19  21 SE9       30.21F
$$

...UNOFFICIAL OBSERVATIONS...

CITY           SKY/WX    TMP DP  RH WIND       PRES   REMARKS
COLBY KS       SUNNY     66  27  22 NW10      30.17S
GOVE KS          N/A     67  32  27 MISG        N/A
LENORA KS        N/A     64  32  30 MISG        N/A
NORTON KS      SUNNY     64   3   9 N12G21    30.13F
SHARON SPRINGS   N/A     66  24  20 N8G15       N/A
TRIBUNE KS     SUNNY     68  34  28 N13       30.19F
KIT CARSON CO    N/A     64  24  22 MISG        N/A
YUMA CO          N/A     64  20  18 N6G13       N/A
$$



USA.gov is the U.S. government's official web portal to all federal, state and local government web resources and services.